sat.trackr.live / text

‹ back to catalog

ONEWEB-0555

NORAD 56057 · 2023-043M

PAYLOAD ACTIVE UNKNOWN

§ Identity

Operator
Country
UK
Launch date
2023-03-26
Launch site
SRILR
Launch vehicle
Mass (kg)
RCS (m²)

Purposes: comms

External: N2YO · Heavens-Above · Gunter

§ Orbital elements

Epoch: 2026-05-25T04:19:28.494624Z

Period
109.37 min
Inclination
87.9109°
Eccentricity
0.0002497
Mean motion
13.16595998 rev/d
Perigee alt
1,195.9 km
Apogee alt
1,199.6 km
Semi-major
7,575.9 km
B*
6.0258e-5
RAAN
233.3387°
Arg perigee
110.5628°
Mean anomaly
249.5771°
Rev number
15,593

§ Raw data

ONEWEB-05551 56057U 23043M   26145.18019091  .00000036  00000+0  60258-4 0  99952 56057  87.9109 233.3387 0002497 110.5628 249.5771 13.16595998155937

JSON: /api/v1/satellites/56057 · /tle

For live sub-satellite position, see the globe view (requires WebGL).

§ Visibility from observer

Set your observer location to see the next 7 days of passes ≥ 10°. The values pass through the URL so the page stays shareable.

No JS? Fill the form by hand. The geolocation button needs JavaScript.